Durant, OK

2:16 AM CST on November 21, 2019 (GMT -0600)
Eaker

Weather History for KDUA - October, 2019

Change the Weather History Date:

Saturday, October 12, 2019

  Actual Average (KMLC) Record (KMLC)
Temperature  
Mean Temperature 50 °F -  
Max Temperature 69 °F 77 °F 94 °F (1978)
Min Temperature 32 °F 53 °F 31 °F (1977)
Degree Days  
Heating Degree Days 14    
Moisture  
Dew Point 28 °F    
Average Humidity 52    
Maximum Humidity 93    
Minimum Humidity 13    
Precipitation  
Precipitation 0.00 in - - ()
Sea Level Pressure  
Sea Level Pressure 30.19 in    
Wind  
Wind Speed 2 mph (SSW)    
Max Wind Speed 8 mph    
Max Gust Speed -    
Visibility 9 miles    
Events      
Averages and records for this station are not official NWS values.
T = Trace of Precipitation, MM = Missing Value Source: NWS Daily Summary

Daily Weather History Graph

Daily Weather History Graph

Search for Another Location

Airport or City:

Astronomy

Oct. 12, 2019 Rise Set
Actual Time 7:28 AM CDT 6:55 PM CDT
Civil Twilight 7:02 AM CDT 7:20 PM CDT
Nautical Twilight 6:34 AM CDT 7:49 PM CDT
Astronomical Twilight 6:05 AM CDT 8:18 PM CDT
Moon 6:46 PM CDT (10/12) 6:13 AM CDT (10/12)
Length of Visible Light 12h 17m
Length of Day
11h 27m
Waxing Gibbous, 99% of the Moon is Illuminated
Oct 12
Waxing Gibbous
Oct 13
Full
Oct 21
Last Quarter
Oct 27
New
Nov 4
First Quarter

Hourly Weather History & Observations

Time (CDT) Temp. Windchill Dew Point Humidity Pressure Visibility Wind Dir Wind Speed Gust Speed Precip Events Conditions
12:36 AM 42.8 °F 40.1 °F 30.2 °F 61% 30.31 in 10.0 mi North 4.6 mph - N/A   Clear
12:55 AM 42.8 °F 41.1 °F 30.2 °F 61% 30.31 in 10.0 mi North 3.5 mph - N/A   Clear
1:17 AM 42.8 °F 41.1 °F 28.4 °F 57% 30.30 in 10.0 mi NNW 3.5 mph - N/A   Clear
1:56 AM 41.0 °F 39.0 °F 28.4 °F 61% 30.30 in 10.0 mi NNW 3.5 mph - N/A   Clear
2:57 AM 39.2 °F 35.9 °F 30.2 °F 70% 30.29 in 10.0 mi NNW 4.6 mph - N/A   Clear
3:15 AM 39.2 °F - 28.4 °F 65% 30.29 in 10.0 mi Calm Calm - N/A   Clear
3:35 AM 37.4 °F - 28.4 °F 70% 30.29 in 10.0 mi Calm Calm - N/A   Clear
4:55 AM 39.2 °F - 28.4 °F 65% 30.29 in 2.0 mi Calm Calm - N/A   Haze
5:17 AM 37.4 °F - 28.4 °F 70% 30.29 in 10.0 mi Calm Calm - N/A   Clear
5:37 AM 35.6 °F - 30.2 °F 81% 30.29 in 10.0 mi Calm Calm - N/A   Clear
6:36 AM 33.8 °F - 30.2 °F 87% 30.31 in 10.0 mi Calm Calm - N/A   Clear
6:55 AM 32.0 °F - 28.4 °F 87% 30.31 in 1.0 mi Calm Calm - N/A   Haze
7:35 AM 32.0 °F - 28.4 °F 87% 30.30 in 10.0 mi Calm Calm - N/A   Clear
8:15 AM 37.4 °F - 35.6 °F 93% 30.30 in 10.0 mi Calm Calm - N/A   Clear
8:36 AM 41.0 °F - 37.4 °F 87% 30.30 in 10.0 mi Calm Calm - N/A   Clear
9:16 AM 46.4 °F - 35.6 °F 66% 30.31 in 10.0 mi Calm Calm - N/A   Clear
9:36 AM 48.2 °F - 33.8 °F 58% 30.31 in 7.0 mi Calm Calm - N/A   Clear
11:55 AM 60.8 °F - 19.4 °F 20% 30.28 in 10.0 mi Calm Calm - N/A   Clear
1:55 PM 66.2 °F - 19.4 °F 17% 30.20 in 7.0 mi WSW 5.8 mph - N/A   Clear
2:17 PM 66.2 °F - 19.4 °F 17% 30.19 in 3.0 mi Calm Calm - N/A   Haze
2:56 PM 66.2 °F - 21.2 °F 18% 30.17 in 5.0 mi SSW 3.5 mph - N/A   Haze
3:15 PM 68.0 °F - 19.4 °F 16% 30.16 in 7.0 mi West 5.8 mph - N/A   Clear
3:35 PM 68.0 °F - 19.4 °F 16% 30.15 in 10.0 mi Calm Calm - N/A   Clear
3:55 PM 69.8 °F - 19.4 °F 15% 30.15 in 4.0 mi SW 6.9 mph - N/A   Haze
4:36 PM 68.0 °F - 17.6 °F 15% 30.13 in 10.0 mi South 3.5 mph - N/A   Clear
4:55 PM 68.0 °F - 15.8 °F 13% 30.12 in 10.0 mi SSW 8.1 mph - N/A   Clear
5:15 PM 68.0 °F - 17.6 °F 15% 30.11 in 10.0 mi SSE 5.8 mph - N/A   Clear
6:36 PM 64.4 °F - 26.6 °F 24% 30.09 in 10.0 mi SE 3.5 mph - N/A   Clear
6:57 PM 60.8 °F - 28.4 °F 29% 30.08 in 10.0 mi SE 3.5 mph - N/A   Clear
7:37 PM 53.6 °F - 32.0 °F 44% 30.08 in 10.0 mi SE 3.5 mph - N/A   Clear
8:16 PM 51.8 °F - 32.0 °F 47% 30.08 in 10.0 mi Calm Calm - N/A   Clear
8:38 PM 50.0 °F - 33.8 °F 54% 30.08 in 10.0 mi SSE 3.5 mph - N/A   Clear
8:57 PM 50.0 °F - 33.8 °F 54% 30.07 in 10.0 mi Calm Calm - N/A   Clear
9:38 PM 48.2 °F - 33.8 °F 58% 30.08 in 10.0 mi Calm Calm - N/A   Clear
9:57 PM 48.2 °F - 33.8 °F 58% 30.08 in 10.0 mi Calm Calm - N/A   Clear
10:38 PM 46.4 °F - 33.8 °F 62% 30.07 in 10.0 mi Calm Calm - N/A   Clear
10:56 PM 46.4 °F - 35.6 °F 66% 30.06 in 10.0 mi Calm Calm - N/A   Clear
11:15 PM 46.4 °F - 35.6 °F 66% 30.07 in 10.0 mi Calm Calm - N/A   Clear
11:37 PM 46.4 °F - 35.6 °F 66% 30.06 in 10.0 mi Calm Calm - N/A   Clear
11:55 PM 46.4 °F - 35.6 °F 66% 30.07 in 10.0 mi Calm Calm - N/A   Clear